Tracking 31027 objects as of 19-Jul-2025
HD Live streaming from Space Station
objects crossing your sky now

STARLINK-30891

Track STARLINK-30891 now!
10-day predictions
STARLINK-30891 is classified as:


NORAD ID: 58367
Int'l Code: 2023-177S
Perigee: 565.3 km
Apogee: 567.1 km
Inclination: 43.0 °
Period: 95.8 minutes
Semi major axis: 6937 km
RCS: Unknown
Launch date: November 18, 2023
Source: United States (US)
Launch site: AIR FORCE EASTERN TEST RANGE (AFETR)
Your satellite tracking list
COSMOS 1743
Track 1 satellite(s)




NASA's NSSDC Master Catalog

Two Line Element Set (TLE):
1 58367U 23177S   25199.01139398  .00000333  00000-0  39745-4 0  9990
2 58367  43.0032 186.8002 0001310 289.4046  70.6654 15.02538101 92854
Source of the keplerian elements: AFSPC